Simultaneous Nadir Overpasses (SNOs) Predictions

Prediction of SNOs between AURA and NPP Satellite Orbit:

Table of predicted SNOs for the next 14.0 days since TLE Epoch: 11/27/2021
Index Date (AURA) Time (AURA) Lat,Lon (AURA) SZA (AURA ) Date (NPP) Time (NPP) Lat,Lon (NPP) SZA (NPP ) Distance(km) Time Diff (sec)
1 11/27/2021 18:19:00 79.50, 162.06 112.74 11/27/2021 18:18:33 79.51, 162.17 112.74 2.19 27
2 11/27/2021 19:08:23 -79.65, -29.20 67.47 11/27/2021 19:09:14 -79.64, -29.35 67.48 3.14 51
3 11/30/2021 10:35:26 79.55, -81.67 113.15 11/30/2021 10:35:24 79.55, -81.67 113.15 0.29 2
4 11/30/2021 11:24:03 -81.11, 101.68 69.41 11/30/2021 11:25:17 -80.90, 102.18 69.57 25.36 74
5 12/03/2021 02:02:31 -79.38,-134.61 66.19 12/03/2021 02:01:36 -79.38,-134.59 66.15 0.54 55
6 12/03/2021 02:51:51 79.60, 34.54 113.53 12/03/2021 02:52:14 79.59, 34.47 113.53 1.41 23
7 12/05/2021 18:18:56 -79.46, -18.19 65.90 12/05/2021 18:18:26 -79.46, -18.19 65.87 0.15 30
8 12/05/2021 19:08:16 79.67, 150.96 113.82 12/05/2021 19:09:04 79.67, 150.89 113.80 1.62 48
9 12/08/2021 10:35:20 -79.57, 98.44 65.69 12/08/2021 10:35:15 -79.57, 98.48 65.70 0.87 5
10 12/08/2021 11:24:40 79.77, -92.38 114.02 12/08/2021 11:25:53 79.77, -92.42 113.98 0.79 73
11 12/11/2021 02:02:23 79.42, 45.69 114.80 12/11/2021 02:01:26 79.43, 45.79 114.82 2.01 57



Historial Predications of SNOs between AURA and NPP
